Zurück zum Katalog

STARLINK-31940

AktivKommunikationVLEO
NORAD 59873·PAYLOAD·🇺🇸 United States

Gestartet May 24, 2024 von Cape Canaveral Space Force Station

Loading…

Nächste Überflüge (nächste 24 Stunden)

TLE

AktuellSource: CelesTrak SupGP

Epoche: Sep 14, 2026, 21:19 UTC

1 59873C 24098R   26257.88868056  .00006674  00000+0  24172-3 0  2574
2 59873  43.0018 281.8825 0001350 264.3287 314.0790 15.27575460    12

Verfolge STARLINK-31940 in Echtzeit mit AllMySat

Download on the App Store